Temperature
20 20 19 19 19 18 18 18 18 17 17 17 17 17 17 17 17 17 16 16 16 16 16 15 15 15 15 15 15 14 14 14 14 13 13 13 13 13 12 12 12 12 12
20 20 19 19 19 19 18 18 18 17 17 17 17 17 17 17 17 17 16 16 16 16 16 15 15 15 15 15 15 14 14 14 14 14 13 13 13 12 12 12 12 12 12
20 20 20 19 19 19 18 18 18 17 17 17 17 17 17 17 16 16 16 16 16 16 15 15 15 15 15 15 15 14 14 14 14 14 13 13 13 12 12 12 12 12 12
20 20 20 19 19 19 18 18 18 17 17 17 17 16 16 16 16 16 16 16 16 15 15 15 15 15 15 15 14 14 14 14 14 13 13 13 13 12 12 12 12 11 11
20 20 20 19 19 19 18 18 18 17 17 17 17 16 16 16 16 16 15 15 15 15 15 15 15 15 15 14 14 14 14 14 13 13 13 13 12 12 12 12 11 11 11
21 20 20 19 19 19 18 18 18 17 17 17 17 16 16 16 16 15 15 15 15 15 15 15 14 14 14 14 14 14 13 13 13 13 13 12 12 12 12 11 11 11 11
21 20 20 19 19 19 18 18 18 17 17 17 17 16 16 15 15 15 15 15 14 14 14 14 14 14 14 14 14 13 13 13 13 13 13 12 12 12 11 11 11 11 11
21 20 20 19 19 19 18 18 18 17 17 17 17 16 16 15 15 15 15 14 14 14 14 14 13 13 13 13 13 13 13 13 12 12 12 12 12 12 11 11 11 11 11
21 21 20 20 19 19 18 18 18 17 17 17 16 16 16 15 15 15 14 14 14 14 13 13 13 13 13 13 13 12 12 12 12 12 12 12 11 11 11 11 11 11 10
21 21 20 19 19 19 18 18 18 17 17 16 16 16 15 15 15 14 14 14 14 13 13 13 13 13 12 12 12 12 12 12 12 12 11 11 11 11 11 11 11 10 10
21 20 19 19 19 18 18 18 17 17 16 16 16 15 15 15 14 14 14 14 13 13 13 13 13 12 12 12 12 11 11 11 11 11 11 11 11 11 11 11 10 10 10
20 20 19 19 19 18 18 17 17 17 16 16 16 15 15 14 14 14 14 14 13 13 13 13 12 12 12 11 11 11 11 11 11 11 11 11 11 10 10 10 10 10 10
20 20 19 19 18 18 18 17 17 16 16 16 16 15 15 14 14 14 13 13 13 13 12 12 12 12 11 11 11 11 11 10 10 10 10 10 10 10 10 10 10 10 10
20 19 19 18 18 18 17 17 17 16 16 16 16 15 15 15 14 14 13 13 13 13 12 12 12 12 11 11 11 11 10 10 10 10 10 10 10 10 10 10 10 10 10
19 19 18 18 18 17 17 17 17 16 16 16 16 15 15 15 14 14 13 13 13 13 12 12 12 12 11 11 11 11 10 10 10 10 10 10 10 10 10 9 9 9 9
19 18 18 17 17 17 17 16 16 16 16 15 15 15 15 14 14 14 13 13 13 12 12 12 12 11 11 11 11 11 10 10 10 10 10 10 10 10 9 9 9 9 9
18 18 17 17 17 17 16 16 16 15 15 15 15 15 14 14 14 13 13 13 12 12 12 12 12 12 11 11 11 11 10 10 10 10 10 10 10 9 9 9 9 9 9
18 18 17 17 17 16 16 16 16 15 15 15 15 14 14 14 14 13 13 13 12 12 12 12 12 11 11 11 11 11 10 10 10 10 10 10 9 9 9 9 9 9 9
17 17 17 17 16 16 16 16 15 15 15 15 14 14 14 14 13 13 13 12 13 12 12 12 12 11 11 11 11 11 10 10 10 10 10 9 9 9 9 9 9 8 8
17 16 16 16 16 15 15 15 15 15 15 14 14 14 14 14 13 13 13 12 12 12 12 12 12 11 11 11 11 10 10 10 10 9 9 9 9 9 9 8 8 8 8
16 16 16 15 15 15 15 15 15 14 14 14 14 14 14 13 13 13 13 12 12 12 12 12 12 11 11 11 11 10 10 10 9 9 9 9 9 9 8 8 8 8 8
15 15 15 15 15 14 14 14 14 14 14 14 13 13 13 13 13 13 13 12 12 12 12 11 11 11 11 11 10 10 10 10 9 9 9 9 8 8 8 8 8 8 8
15 15 15 15 14 14 14 14 14 14 13 13 13 13 13 13 13 12 12 12 12 12 11 11 11 11 11 10 10 10 10 9 9 9 9 8 8 8 8 8 8 7 7
14 14 14 14 14 13 13 13 13 13 13 13 13 13 13 13 12 12 12 12 12 11 11 11 11 11 11 10 10 10 10 9 9 9 8 8 8 8 8 7 7 7 7
14 14 14 13 13 13 13 13 13 13 13 13 13 13 13 12 12 12 12 12 11 11 11 11 11 10 10 10 10 9 9 9 9 8 8 8 8 8 7 7 7 7 7
14 14 13 13 13 13 13 13 13 13 13 12 12 12 12 12 12 12 12 11 11 11 11 10 10 10 10 9 9 9 9 9 8 8 8 8 7 7 7 7 7 6 6
Wind_Speed
5 4 4 3 3 3 2 2 2 2 2 2 2 2 2 2 2 2 2 1 2 1 1 2 1 1 2 2 2 2 2 2 3 1 1 1 2 2 3 4 4 5 5
6 5 4 4 4 3 3 2 3 3 2 3 3 3 2 2 2 2 2 2 2 1 1 1 1 1 2 2 2 2 2 2 3 3 2 1 1 1 2 2 3 3 4
6 6 5 4 4 4 3 3 3 3 3 3 3 3 2 2 2 2 2 2 2 1 1 1 1 2 2 1 2 2 2 3 3 4 2 1 1 1 2 2 2 2 2
7 6 6 5 5 4 4 4 4 4 4 3 3 2 2 2 2 2 2 2 2 2 2 2 2 2 2 2 2 2 3 4 4 4 3 2 1 1 2 2 1 1 1
7 7 6 5 4 4 4 4 4 4 4 3 3 2 2 2 1 2 2 2 2 2 2 2 2 2 3 2 3 3 4 4 4 4 3 2 2 2 2 1 1 0 1
8 7 6 5 5 5 4 4 4 4 3 3 3 2 2 1 2 3 3 2 2 2 2 2 2 3 3 4 4 4 5 5 5 4 3 3 3 3 2 3 2 1 0
8 7 7 6 6 5 5 5 5 4 3 3 2 2 2 1 2 3 4 3 3 2 2 1 2 2 3 3 4 5 4 3 4 4 4 4 4 5 4 4 3 2 2
8 7 7 7 7 6 6 5 4 4 4 3 3 3 2 1 2 3 4 3 3 2 2 1 1 1 2 3 3 3 2 1 2 3 3 4 4 5 6 5 4 2 1
9 9 8 8 8 7 7 6 4 4 4 3 3 3 2 1 2 3 4 3 2 2 2 1 1 1 2 4 4 3 2 1 1 1 2 2 3 6 7 4 4 3 1
10 9 8 9 9 8 8 6 5 5 4 4 3 2 3 2 2 3 4 2 2 1 1 1 0 1 2 3 4 3 2 1 0 1 1 1 1 3 7 6 5 4 2
7 7 8 8 9 8 7 5 5 5 4 3 3 2 2 2 3 3 5 3 3 2 1 1 1 1 3 3 3 3 3 2 1 1 0 1 0 1 2 4 5 4 4
7 7 7 7 7 7 7 6 5 5 5 4 3 2 2 2 3 4 5 5 4 3 3 2 2 2 3 3 2 2 3 2 1 1 0 1 1 2 2 3 5 5 5
7 7 6 6 6 6 7 7 6 5 5 4 4 4 3 2 3 4 5 6 6 3 3 3 3 3 3 2 2 3 2 2 1 1 2 2 2 2 2 1 2 3 4
7 6 6 6 6 6 5 6 6 6 6 5 5 5 4 3 3 3 3 3 4 3 2 2 3 3 2 1 1 1 1 2 2 3 3 3 2 1 1 1 2 2 2
7 6 6 6 6 6 5 5 6 6 7 7 7 6 6 6 7 8 6 5 4 4 3 1 1 1 1 1 1 2 2 2 2 3 3 3 2 2 2 2 2 2 3
7 6 6 5 5 5 5 3 3 4 6 9 8 7 6 7 6 8 9 8 7 7 5 3 3 4 4 4 3 3 3 3 3 4 4 4 4 4 3 2 2 3 4
7 7 6 6 6 6 6 6 4 2 4 6 8 9 9 8 8 8 9 8 7 8 5 5 5 5 5 5 4 4 4 4 3 4 4 4 4 4 3 3 3 3 4
7 7 7 6 6 6 6 6 6 6 4 4 5 8 9 9 9 8 8 6 4 5 6 6 6 5 5 5 5 5 4 3 3 4 4 4 4 4 4 4 4 4 4
6 5 6 5 6 6 6 6 6 6 6 4 3 3 6 6 6 6 8 5 6 6 7 6 6 6 6 5 5 4 4 4 4 4 4 4 4 3 4 4 4 5 4
4 6 6 5 5 5 5 5 5 6 6 6 6 5 4 4 4 5 6 6 6 6 6 6 6 6 5 5 5 4 4 4 4 4 4 4 3 4 5 5 4 4 4
3 4 5 4 4 5 5 6 6 6 6 6 6 6 8 6 6 6 6 7 7 7 7 6 6 6 5 5 5 5 6 5 4 4 4 4 4 4 5 5 4 4 4
3 3 3 4 4 4 5 5 5 5 6 6 4 4 7 5 5 5 5 6 6 6 6 6 6 5 5 6 6 6 6 6 5 5 4 4 3 4 4 4 4 4 4
3 3 3 3 3 4 4 4 5 5 5 5 5 4 4 5 5 5 6 5 5 5 5 6 6 5 5 5 6 6 6 6 6 5 5 4 4 4 4 4 4 4 4
3 3 3 3 3 3 4 5 5 5 5 5 5 5 5 5 5 6 6 5 5 5 5 6 6 7 7 5 5 6 6 6 6 5 6 5 4 4 3 3 4 4 4
3 3 3 4 4 4 4 4 4 5 5 5 5 5 5 4 5 5 5 5 6 6 6 6 5 5 6 7 6 5 5 6 6 5 4 4 4 4 4 4 3 3 3
3 3 3 3 4 4 4 4 4 4 4 4 5 5 4 4 5 5 4 4 5 5 5 5 5 6 6 5 6 5 4 5 5 4 4 3 3 3 3 3 3 3 3
Wind_Direction
179 178 170 172 166 150 151 158 146 128 129 129 123 113 101 82 76 92 96 93 94 71 70 99 94 111 133 136 144 146 137 139 151 142 108 85 99 91 74 80 80 74 71
176 169 170 162 150 147 153 144 128 120 112 116 115 107 99 83 76 95 101 94 100 86 67 85 84 113 109 132 141 143 145 143 151 152 134 114 106 116 96 84 79 80 79
169 166 167 167 163 165 160 145 134 126 118 115 117 119 114 101 91 90 98 91 85 83 88 103 104 110 108 118 132 136 137 129 127 140 137 118 105 113 105 96 81 57 80
169 170 178 184 179 174 160 147 141 136 132 130 128 125 119 110 96 94 97 92 79 68 72 89 106 121 135 140 139 137 128 122 122 127 127 124 124 125 128 125 98 53 53
170 175 188 185 172 159 152 148 142 139 140 136 121 106 101 105 96 110 113 111 99 76 61 67 99 115 128 137 139 144 139 134 135 137 138 137 146 149 164 169 159 117 39
174 182 178 168 165 164 161 154 148 145 139 131 130 133 123 100 107 125 120 122 117 102 76 48 54 76 92 99 111 132 144 150 158 156 166 175 190 189 169 164 158 151 222
177 178 173 169 168 171 166 160 163 163 154 145 144 150 136 124 128 130 122 123 116 103 91 64 56 57 74 92 96 96 105 125 153 165 176 193 193 193 175 172 180 183 200
176 178 175 170 172 170 167 173 175 165 162 167 169 166 155 169 150 143 131 118 107 90 85 93 89 59 74 108 112 98 92 103 169 182 187 203 206 192 187 186 181 170 163
183 184 182 176 174 174 178 178 175 169 170 174 169 166 168 198 173 149 129 119 107 83 55 67 110 127 121 121 119 115 90 22 71 130 187 209 201 187 173 158 161 169 207
191 187 180 176 176 181 183 177 171 171 176 169 167 177 181 192 191 163 146 136 132 123 40 26 55 169 164 148 143 146 158 248 312 28 29 31 169 181 181 185 184 186 195
183 174 173 178 181 181 176 172 165 164 161 166 171 185 195 203 200 186 170 167 181 186 199 244 274 209 184 178 168 176 202 199 172 161 1 2 28 191 201 202 198 191 195
164 165 174 178 178 175 168 167 162 163 167 179 182 198 223 217 206 207 197 193 186 185 203 214 220 190 181 181 181 189 181 161 143 134 173 282 280 263 242 222 214 213 219
162 168 172 169 169 167 169 169 168 172 185 193 196 211 229 223 220 218 211 203 194 193 209 205 199 183 175 185 204 192 173 164 164 197 240 256 261 264 268 243 230 225 237
167 173 170 169 172 174 175 176 179 186 192 197 203 215 225 221 219 212 209 205 200 202 210 204 188 175 167 179 208 207 201 201 205 224 242 255 267 264 264 256 245 232 247
170 175 176 179 178 182 186 192 194 201 197 197 204 207 209 223 224 203 190 198 201 201 175 148 145 163 200 220 237 242 233 219 225 239 240 251 258 261 265 256 239 232 233
174 181 184 183 183 185 185 192 206 210 207 206 206 202 214 218 204 193 198 202 195 172 159 191 206 211 219 224 228 237 235 234 236 237 237 237 243 247 253 250 237 237 241
180 184 185 186 188 191 191 194 209 227 214 213 215 215 216 211 202 199 198 195 187 167 184 213 218 221 226 229 229 232 237 240 236 234 237 238 238 242 244 246 245 248 255
182 188 189 193 195 198 200 203 205 210 221 233 227 219 215 212 208 202 187 161 176 190 214 221 226 227 227 229 231 235 237 238 234 237 239 239 235 237 242 244 242 244 249
186 192 195 197 197 200 201 204 209 211 218 226 234 234 220 210 205 197 175 191 206 212 217 223 227 228 228 227 229 228 229 232 234 232 236 237 236 236 242 245 244 241 243
192 195 192 193 196 199 200 204 212 217 219 221 226 229 194 175 198 202 202 213 218 224 225 226 227 226 224 223 223 224 228 233 235 234 236 236 235 235 240 243 241 241 242
186 189 183 187 200 204 206 211 215 219 224 229 232 221 197 205 213 213 212 215 220 225 225 225 224 221 219 218 218 220 223 229 231 232 233 234 233 238 243 240 238 241 246
178 188 196 204 209 213 215 216 216 220 227 232 239 225 201 210 217 218 222 226 225 224 219 216 222 223 219 217 216 216 221 227 228 228 232 233 232 240 243 239 240 243 244
185 195 207 218 217 212 216 223 221 221 228 231 228 221 212 217 222 225 226 228 223 221 217 214 219 224 222 220 216 214 219 225 226 222 225 230 233 237 237 234 237 240 244
194 204 215 220 218 220 224 229 228 224 227 230 228 224 225 224 227 229 228 228 226 223 217 214 216 219 216 216 219 221 226 232 228 221 219 222 228 234 234 232 230 234 240
201 208 221 228 225 222 226 234 237 232 227 226 227 228 228 226 229 231 229 227 224 222 219 214 213 214 213 213 216 220 222 218 218 219 215 217 223 225 228 230 230 234 245
209 215 224 231 228 225 222 225 229 232 232 228 226 226 225 226 228 229 226 222 220 222 221 216 214 209 207 210 217 211 201 202 203 204 205 206 216 224 221 224 226 230 240
Height
1537 1539 1540 1541 1542 1543 1544 1544 1545 1545 1545 1545 1544 1544 1543 1543 1542 1541 1540 1540 1539 1539 1539 1538 1538 1538 1539 1539 1539 1540 1540 1540 1540 1541 1542 1542 1543 1543 1543 1543 1543 1543 1542
1536 1537 1539 1540 1541 1542 1542 1543 1544 1544 1544 1544 1544 1543 1543 1542 1541 1540 1539 1539 1538 1538 1538 1538 1537 1538 1538 1538 1538 1538 1539 1539 1539 1540 1541 1541 1542 1542 1542 1542 1542 1542 1542
1533 1536 1537 1538 1539 1540 1541 1542 1543 1543 1543 1543 1542 1542 1542 1541 1540 1539 1539 1538 1538 1537 1537 1537 1537 1537 1537 1537 1537 1538 1538 1538 1538 1539 1539 1540 1541 1542 1542 1542 1542 1542 1542
1532 1533 1535 1537 1538 1539 1540 1541 1541 1542 1542 1542 1542 1541 1541 1540 1540 1539 1538 1537 1537 1537 1536 1536 1536 1536 1536 1536 1537 1537 1537 1537 1537 1538 1538 1539 1540 1540 1541 1541 1542 1542 1542
1529 1531 1533 1535 1537 1538 1539 1540 1541 1541 1541 1541 1541 1541 1540 1540 1539 1538 1537 1537 1536 1536 1536 1536 1535 1536 1536 1536 1536 1536 1536 1536 1536 1537 1538 1538 1539 1539 1540 1541 1541 1542 1542
1527 1529 1531 1533 1535 1536 1537 1538 1539 1540 1540 1540 1540 1539 1539 1539 1538 1537 1537 1536 1536 1535 1535 1535 1535 1535 1535 1535 1535 1535 1536 1536 1536 1536 1537 1537 1538 1539 1539 1540 1540 1541 1541
1524 1527 1529 1531 1532 1534 1535 1536 1537 1537 1538 1538 1538 1538 1538 1538 1537 1536 1536 1535 1535 1535 1535 1535 1535 1534 1534 1534 1534 1535 1535 1535 1536 1536 1536 1536 1537 1537 1538 1538 1539 1539 1540
1522 1524 1526 1528 1530 1532 1533 1534 1535 1536 1536 1537 1537 1536 1536 1536 1536 1535 1535 1534 1534 1534 1534 1534 1534 1534 1534 1534 1534 1534 1534 1534 1534 1534 1535 1535 1536 1536 1537 1537 1538 1538 1538
1519 1521 1523 1525 1527 1529 1530 1532 1533 1534 1534 1535 1535 1535 1535 1535 1535 1534 1534 1533 1533 1534 1534 1533 1533 1533 1533 1533 1533 1532 1533 1533 1533 1533 1533 1534 1534 1534 1535 1535 1535 1535 1535
1516 1518 1521 1523 1524 1526 1527 1528 1530 1531 1532 1532 1533 1533 1533 1533 1533 1533 1533 1533 1532 1532 1533 1533 1532 1532 1532 1532 1532 1531 1531 1531 1532 1532 1532 1532 1532 1532 1532 1532 1533 1533 1533
1514 1516 1518 1520 1521 1523 1524 1526 1527 1528 1529 1530 1530 1530 1531 1531 1531 1531 1531 1531 1531 1531 1531 1531 1531 1531 1531 1530 1530 1530 1530 1530 1530 1530 1530 1530 1530 1530 1530 1530 1530 1530 1530
1512 1514 1515 1517 1518 1519 1521 1523 1524 1525 1526 1527 1527 1528 1528 1529 1529 1529 1529 1529 1529 1529 1529 1529 1529 1529 1529 1529 1528 1528 1528 1528 1528 1528 1528 1527 1527 1527 1527 1527 1527 1527 1527
1509 1511 1512 1514 1515 1517 1518 1519 1520 1522 1523 1523 1524 1525 1526 1527 1527 1527 1527 1527 1527 1526 1527 1527 1527 1527 1526 1527 1526 1526 1526 1526 1526 1526 1525 1525 1525 1525 1525 1524 1524 1524 1524
1506 1508 1509 1511 1512 1514 1515 1516 1517 1518 1519 1520 1521 1522 1523 1524 1524 1524 1524 1524 1524 1524 1524 1524 1524 1524 1524 1524 1524 1524 1524 1523 1523 1523 1523 1523 1522 1522 1522 1522 1521 1521 1521
1503 1505 1506 1508 1509 1510 1511 1512 1514 1515 1516 1517 1518 1519 1519 1519 1520 1521 1521 1521 1521 1522 1521 1521 1521 1521 1521 1521 1521 1521 1521 1520 1520 1520 1520 1519 1519 1519 1519 1519 1518 1518 1517
1499 1501 1503 1505 1506 1507 1508 1510 1511 1513 1514 1514 1514 1515 1515 1516 1517 1517 1517 1518 1518 1518 1518 1517 1517 1517 1517 1517 1517 1517 1517 1517 1517 1517 1516 1516 1515 1515 1515 1515 1514 1514 1514
1496 1498 1500 1502 1503 1504 1505 1506 1507 1509 1509 1510 1510 1511 1512 1512 1513 1513 1513 1514 1515 1514 1514 1513 1513 1514 1514 1514 1513 1513 1513 1513 1513 1513 1512 1512 1511 1511 1511 1511 1510 1510 1510
1493 1495 1497 1498 1499 1500 1501 1502 1503 1504 1504 1504 1506 1507 1507 1508 1509 1509 1510 1509 1509 1509 1509 1509 1509 1509 1510 1510 1509 1509 1509 1508 1508 1508 1508 1508 1507 1507 1507 1506 1506 1506 1506
1489 1491 1492 1494 1495 1496 1497 1498 1499 1499 1500 1500 1501 1502 1503 1503 1504 1504 1504 1504 1503 1504 1504 1504 1505 1505 1505 1505 1505 1505 1505 1504 1504 1504 1504 1503 1503 1503 1502 1502 1502 1502 1502
1486 1488 1489 1490 1491 1492 1493 1493 1494 1495 1495 1496 1496 1497 1498 1498 1498 1499 1499 1499 1499 1499 1500 1499 1500 1500 1501 1501 1500 1500 1500 1500 1499 1499 1499 1499 1499 1499 1498 1498 1498 1497 1497
1483 1484 1485 1486 1487 1487 1488 1489 1490 1490 1490 1491 1491 1492 1493 1493 1493 1493 1494 1494 1494 1494 1494 1495 1495 1495 1495 1496 1495 1495 1495 1495 1494 1494 1494 1494 1494 1494 1493 1493 1493 1493 1493
1480 1481 1481 1482 1483 1483 1484 1484 1485 1485 1486 1487 1487 1487 1487 1488 1488 1488 1489 1489 1490 1490 1490 1490 1490 1490 1490 1490 1490 1490 1490 1490 1490 1490 1490 1489 1489 1489 1489 1489 1489 1489 1488
1477 1478 1478 1478 1479 1479 1479 1480 1480 1480 1481 1482 1482 1482 1482 1482 1483 1483 1484 1484 1485 1485 1485 1485 1485 1485 1485 1485 1485 1485 1485 1485 1485 1485 1485 1484 1484 1484 1484 1484 1484 1484 1484
1474 1474 1475 1475 1475 1475 1475 1475 1475 1475 1476 1477 1478 1478 1478 1478 1478 1479 1479 1480 1480 1480 1480 1480 1480 1480 1480 1480 1481 1481 1481 1481 1480 1480 1480 1480 1480 1480 1479 1479 1479 1479 1479
1470 1470 1471 1471 1471 1471 1471 1471 1471 1471 1471 1472 1473 1473 1473 1473 1474 1475 1475 1475 1475 1475 1475 1475 1475 1475 1475 1476 1476 1476 1476 1476 1476 1475 1476 1475 1475 1475 1475 1475 1474 1474 1474
1466 1466 1466 1466 1467 1467 1466 1466 1466 1467 1467 1467 1468 1468 1468 1469 1469 1470 1470 1470 1470 1470 1470 1470 1470 1470 1470 1471 1471 1471 1471 1471 1471 1471 1471 1471 1470 1470 1470 1470 1470 1470 1471